Newberry, MI

4:06 AM EST on February 21, 2017 (GMT -0500)
Luce County

Weather History for KERY - December, 2013

Change the Weather History Date:

Tuesday, December 17, 2013

  Actual Average Record
Temperature  
Mean Temperature 9 °F -  
Max Temperature 18 °F 27 °F 41 °F (1928)
Min Temperature 0 °F 14 °F -22 °F (1919)
Degree Days  
Heating Degree Days 56    
Moisture  
Dew Point 10 °F    
Average Humidity 92    
Maximum Humidity 95    
Minimum Humidity 88    
Precipitation  
Precipitation 0.00 in - - ()
Sea Level Pressure  
Sea Level Pressure 29.78 in    
Wind  
Wind Speed 4 mph (SW)    
Max Wind Speed 10 mph    
Max Gust Speed -    
Visibility 7 miles    
Events Snow    
Averages and records for this station are not official NWS values.
T = Trace of Precipitation, MM = Missing Value Source: NWS Daily Summary

Daily Weather History Graph

Daily Weather History Graph

Search for Another Location

Airport or City:

Trip Planner

Search our weather history database for the weather conditions in past years. The results will help you decide how hot, cold, wet, or windy it might be!

Date:

Astronomy

Dec. 17, 2013 Rise Set
Actual Time 8:19 AM EST 4:56 PM EST
Civil Twilight 7:44 AM EST 5:31 PM EST
Nautical Twilight 7:06 AM EST 6:09 PM EST
Astronomical Twilight 6:29 AM EST 6:46 PM EST
Moon 5:39 PM EST (12/17) 8:12 AM EST (12/17)
Length of Visible Light 9h 46m
Length of Day
8h 36m
Full, 100% of the Moon is Illuminated
Dec 17
Full
Dec 25
Last Quarter
Jan 1
New
Jan 7
First Quarter
Jan 15
Full

Hourly Weather History & Observations

Time (EST) Temp. Windchill Dew Point Humidity Pressure Visibility Wind Dir Wind Speed Gust Speed Precip Events Conditions
12:16 AM 12.6 °F - 10.4 °F 91% 29.84 in 2.0 mi Calm Calm - N/A Snow Light Snow
12:55 AM 12.6 °F - 10.4 °F 91% 29.82 in 1.5 mi Calm Calm - N/A Snow Light Snow
1:16 AM 12.4 °F - 10.2 °F 91% 29.81 in 1.2 mi Calm Calm - N/A Snow Light Snow
1:35 AM 12.7 °F - 10.4 °F 90% 29.80 in 4.0 mi Calm Calm - N/A Snow Light Snow
1:55 AM 12.6 °F - 10.4 °F 91% 29.80 in 5.0 mi Calm Calm - N/A Snow Light Snow
2:15 AM 12.2 °F - 10.0 °F 91% 29.80 in 3.0 mi Calm Calm - N/A Snow Light Snow
2:35 AM 12.6 °F - 10.4 °F 91% 29.80 in 2.5 mi Calm Calm - N/A Snow Light Snow
2:55 AM 12.4 °F 6.3 °F 10.4 °F 92% 29.80 in 1.5 mi SSW 3.5 mph - N/A Snow Light Snow
3:15 AM 13.6 °F 3.5 °F 10.8 °F 88% 29.80 in 2.0 mi WSW 6.9 mph - N/A Snow Light Snow
3:35 AM 13.1 °F 5.4 °F 10.4 °F 89% 29.79 in 2.0 mi WSW 4.6 mph - N/A Snow Light Snow
3:55 AM 12.0 °F 4.1 °F 9.5 °F 90% 29.78 in 2.5 mi SW 4.6 mph - N/A Snow Light Snow
4:16 AM 11.1 °F 3.1 °F 8.6 °F 90% 29.78 in 10.0 mi SW 4.6 mph - N/A Snow Light Snow
4:35 AM 10.4 °F 2.2 °F 8.6 °F 92% 29.78 in 10.0 mi SW 4.6 mph - N/A   Clear
4:55 AM 9.0 °F 0.6 °F 7.2 °F 92% 29.78 in 10.0 mi SW 4.6 mph - N/A   Clear
5:15 AM 5.4 °F -1.7 °F 4.1 °F 95% 29.77 in 10.0 mi SW 3.5 mph - N/A   Scattered Clouds
5:35 AM 6.8 °F -3.5 °F 5.0 °F 92% 29.78 in 10.0 mi SW 5.8 mph - N/A   Scattered Clouds
5:55 AM 5.7 °F -4.8 °F 3.9 °F 92% 29.78 in 10.0 mi SW 5.8 mph - N/A   Clear
6:15 AM 3.7 °F -8.4 °F 1.9 °F 92% 29.78 in 10.0 mi SSW 6.9 mph - N/A   Scattered Clouds
6:35 AM 6.8 °F -2.0 °F 4.8 °F 92% 29.78 in 10.0 mi SW 4.6 mph - N/A   Mostly Cloudy
6:55 AM 6.8 °F -2.0 °F 4.8 °F 92% 29.78 in 10.0 mi SSW 4.6 mph - N/A   Scattered Clouds
7:15 AM 6.4 °F -2.4 °F 4.6 °F 92% 29.78 in 10.0 mi SW 4.6 mph - N/A Snow Light Snow
7:35 AM 6.6 °F -2.2 °F 4.5 °F 91% 29.78 in 10.0 mi SW 4.6 mph - N/A   Mostly Cloudy
7:56 AM 7.3 °F - 5.2 °F 91% 29.77 in 10.0 mi Calm Calm - N/A   Overcast
8:15 AM 6.6 °F -0.3 °F 4.1 °F 89% 29.77 in 10.0 mi SSW 3.5 mph - N/A Snow Light Snow
8:35 AM 4.6 °F -4.5 °F 2.3 °F 90% 29.77 in 3.0 mi SSW 4.6 mph - N/A   Overcast
8:56 AM 3.6 °F - 1.2 °F 90% 29.77 in 2.5 mi Calm Calm - N/A Snow Light Snow
9:15 AM 3.2 °F - 1.0 °F 91% 29.77 in 10.0 mi Calm Calm - N/A   Clear
9:35 AM 0.1 °F -9.7 °F -2.4 °F 89% 29.77 in 10.0 mi SSW 4.6 mph - N/A   Clear
9:55 AM 6.3 °F -5.4 °F 4.1 °F 91% 29.78 in 10.0 mi SW 6.9 mph - N/A   Clear
10:15 AM 7.2 °F -5.4 °F 4.6 °F 89% 29.78 in 10.0 mi SSW 8.1 mph - N/A   Clear
10:35 AM 7.9 °F -3.5 °F 5.4 °F 89% 29.78 in 10.0 mi SW 6.9 mph - N/A   Scattered Clouds
10:55 AM 10.0 °F -2.9 °F 7.9 °F 91% 29.77 in 5.0 mi WSW 9.2 mph - N/A Snow Light Snow
11:15 AM 11.3 °F 0.7 °F 9.3 °F 92% 29.77 in 7.0 mi West 6.9 mph - N/A   Overcast
11:35 AM 12.2 °F 4.3 °F 10.2 °F 92% 29.76 in 5.0 mi West 4.6 mph - N/A   Overcast
11:55 AM 12.6 °F - 10.4 °F 91% 29.76 in 5.0 mi Calm Calm - N/A Snow Light Snow
12:15 PM 12.2 °F - 10.4 °F 92% 29.76 in 4.0 mi Calm Calm - N/A Snow Light Snow
12:35 PM 12.6 °F - 10.4 °F 91% 29.76 in 1.8 mi Calm Calm - N/A Snow Light Snow
12:55 PM 12.6 °F - 10.4 °F 91% 29.76 in 1.2 mi Calm Calm - N/A Snow Light Snow
1:16 PM 13.1 °F - 11.1 °F 92% 29.74 in 2.0 mi Calm Calm - N/A Snow Light Snow
1:35 PM 13.6 °F - 11.8 °F 93% 29.74 in 5.0 mi Calm Calm - N/A   Overcast
1:55 PM 14.7 °F - 12.7 °F 92% 29.74 in 5.0 mi Calm Calm - N/A   Overcast
2:16 PM 14.9 °F - 13.1 °F 93% 29.74 in 5.0 mi Calm Calm - N/A Snow Light Snow
2:36 PM 15.3 °F 9.6 °F 13.3 °F 92% 29.74 in 7.0 mi SSW 3.5 mph - N/A   Overcast
2:55 PM 15.6 °F 7.0 °F 13.8 °F 93% 29.74 in 5.0 mi SW 5.8 mph - N/A   Overcast
3:15 PM 15.8 °F 4.2 °F 13.8 °F 92% 29.74 in 7.0 mi SW 9.2 mph - N/A   Overcast
3:36 PM 15.8 °F 5.1 °F 13.8 °F 92% 29.74 in 7.0 mi SW 8.1 mph - N/A   Overcast
3:55 PM 15.8 °F 4.2 °F 14.0 °F 93% 29.74 in 10.0 mi SW 9.2 mph - N/A   Overcast
4:15 PM 15.8 °F 5.1 °F 14.0 °F 93% 29.75 in 7.0 mi SW 8.1 mph - N/A   Overcast
4:35 PM 15.8 °F 5.1 °F 14.0 °F 93% 29.76 in 7.0 mi SW 8.1 mph - N/A Snow Light Snow
4:55 PM 15.6 °F 5.9 °F 13.8 °F 93% 29.76 in 7.0 mi SW 6.9 mph - N/A   Overcast
5:15 PM 14.7 °F 5.9 °F 12.7 °F 92% 29.76 in 4.0 mi SSW 5.8 mph - N/A Snow Light Snow
5:35 PM 13.6 °F 4.6 °F 11.8 °F 93% 29.76 in 4.0 mi SSW 5.8 mph - N/A Snow Light Snow
5:55 PM 11.5 °F 2.1 °F 9.7 °F 92% 29.77 in 10.0 mi SSW 5.8 mph - N/A Snow Light Snow
6:15 PM 13.1 °F 2.8 °F 11.5 °F 93% 29.78 in 10.0 mi SSW 6.9 mph - N/A   Overcast
6:35 PM 13.8 °F 2.7 °F 11.8 °F 92% 29.78 in 5.0 mi SSW 8.1 mph - N/A Snow Light Snow
6:55 PM 13.8 °F 6.2 °F 11.8 °F 92% 29.79 in 5.0 mi SSW 4.6 mph - N/A Snow Light Snow
7:15 PM 14.5 °F 4.6 °F 12.4 °F 91% 29.79 in 4.0 mi SSW 6.9 mph - N/A Snow Light Snow
7:35 PM 15.3 °F 5.4 °F 13.1 °F 91% 29.79 in 10.0 mi SSW 6.9 mph - N/A Snow Light Snow
7:55 PM 15.8 °F 4.2 °F 13.8 °F 92% 29.79 in 10.0 mi SW 9.2 mph - N/A   Overcast
8:16 PM 16.0 °F 5.3 °F 14.0 °F 92% 29.79 in 10.0 mi WSW 8.1 mph - N/A   Overcast
8:35 PM 15.6 °F 4.9 °F 13.6 °F 92% 29.80 in 10.0 mi WSW 8.1 mph - N/A   Overcast
8:55 PM 14.7 °F 3.8 °F 13.3 °F 94% 29.80 in 7.0 mi WSW 8.1 mph - N/A   Scattered Clouds
9:16 PM 15.8 °F 5.1 °F 14.4 °F 94% 29.80 in 7.0 mi WSW 8.1 mph - N/A Snow Light Snow
9:35 PM 17.2 °F 5.2 °F 15.6 °F 93% 29.81 in 7.0 mi WSW 10.4 mph - N/A Snow Light Snow
9:55 PM 18.0 °F 6.9 °F 16.2 °F 93% 29.82 in 1.5 mi WSW 9.2 mph - N/A Snow Light Snow
10:15 PM 18.1 °F 7.9 °F 16.3 °F 93% 29.82 in 3.0 mi West 8.1 mph - N/A Snow Light Snow
10:35 PM 18.5 °F 6.8 °F 16.5 °F 92% 29.83 in 7.0 mi West 10.4 mph - N/A Snow Light Snow
10:55 PM 18.3 °F 7.3 °F 15.8 °F 90% 29.83 in 10.0 mi West 9.2 mph - N/A   Overcast
11:15 PM 18.1 °F 7.1 °F 15.4 °F 89% 29.83 in 10.0 mi West 9.2 mph - N/A Snow Light Snow
11:35 PM 18.1 °F 7.1 °F 15.8 °F 91% 29.84 in 10.0 mi West 9.2 mph - N/A   Overcast
11:55 PM 18.5 °F 8.4 °F 16.2 °F 91% 29.84 in 10.0 mi West 8.1 mph - N/A Snow Light Snow